Location: Mentone
(34.5413°N, 85.5351°W)
Time: 01:41:14
(UTC-06:00)

Tiros 1 despin weight - Visible Passes

Search period start: 09 December 2016 00:00
Search period end: 19 December 2016 00:00
Orbit: 595 x 644 km, 48.2° (Epoch: 08 December)

Date Brightness Start Highest point End Pass type
(mag) Time Alt. Az. Time Alt. Az. Time Alt. Az.
09 Dec ? 18:16:57 10° SSW 18:20:47 37° SE 18:20:47 37° SE visible
10 Dec ? 16:55:55 10° SE 16:57:05 11° SE 16:58:16 10° ESE visible
10 Dec ? 18:33:37 10° SW 18:37:35 70° SSW 18:37:35 70° SSW visible
11 Dec ? 17:10:17 10° S 17:13:53 25° SE 17:17:13 11° E visible
11 Dec ? 18:50:53 10° WSW 18:54:20 44° WNW 18:54:20 44° WNW visible
12 Dec ? 17:26:29 10° SW 17:30:48 53° SE 17:33:54 18° ENE visible
12 Dec ? 19:08:37 10° W 19:11:01 24° WNW 19:11:01 24° WNW visible
13 Dec ? 17:43:27 10° WSW 17:47:53 74° NW 17:50:31 24° NE visible
13 Dec ? 19:26:41 10° WNW 19:27:37 14° WNW 19:27:37 14° WNW visible
14 Dec ? 18:00:57 10° W 18:05:08 39° NNW 18:07:04 26° NNE visible
15 Dec ? 18:18:52 10° WNW 18:22:32 25° NNW 18:23:34 22° N visible
16 Dec ? 18:37:01 10° WNW 18:40:02 18° NNW 18:40:02 18° NNW visible
17 Dec ? 17:11:06 10° W 17:15:02 31° NNW 17:19:02 10° NE visible
17 Dec ? 18:55:12 10° NW 18:56:27 13° NNW 18:56:27 13° NNW visible
18 Dec ? 17:29:08 10° WNW 17:32:31 21° NNW 17:35:46 11° NNE visible
